| time (UTC) | temp F | wind direction | speed knots | gust knots | rain 1hr in | rain 24hr in | rain mn in | humidity % | barometer mb |
| 20260506134536 | 56 | 27 | 2.6 | 8.7 | 0.00 | 0.00 | 0.00 | 52 | 1010.9 |
| 20260506133041 | 57 | 360 | 3.5 | 10.4 | 0.00 | 0.00 | 0.00 | 54 | 1010.8 |
| 20260506131534 | 58 | 74 | 0.9 | 8.7 | 0.00 | 0.00 | 0.00 | 53 | 1011.0 |
| 20260506130037 | 58 | 23 | 3.5 | 9.6 | 0.00 | 0.00 | 0.00 | 58 | 1010.9 |
| 20260506124532 | 58 | 30 | 7.8 | 11.3 | 0.00 | 0.00 | 0.00 | 59 | 1010.9 |
| 20260506123032 | 57 | 32 | 1.7 | 8.7 | 0.00 | 0.00 | 0.00 | 58 | 1011.0 |
| 20260506121530 | 58 | 11 | 1.7 | 9.6 | 0.00 | 0.00 | 0.00 | 61 | 1011.0 |
| 20260506120030 | 57 | 355 | 4.3 | 7.8 | 0.00 | 0.00 | 0.00 | 56 | 1011.1 |
| 20260506114527 | 57 | 73 | 0.9 | 6.1 | 0.00 | 0.00 | 0.00 | 56 | 1011.1 |
| 20260506113025 | 56 | 34 | 1.7 | 7.0 | 0.00 | 0.00 | 0.00 | 61 | 1011.2 |
| 20260506111524 | 56 | 355 | 1.7 | 7.0 | 0.00 | 0.00 | 0.00 | 64 | 1011.2 |
| 20260506110023 | 55 | 19 | 0.9 | 7.8 | 0.00 | 0.00 | 0.00 | 62 | 1011.3 |
| 20260506104526 | 54 | 43 | 0.9 | 7.0 | 0.00 | 0.00 | 0.00 | 66 | 1011.2 |
| 20260506103024 | 55 | 33 | 3.5 | 9.6 | 0.00 | 0.00 | 0.00 | 69 | 1011.2 |
| 20260506101523 | 55 | 21 | 4.3 | 8.7 | 0.00 | 0.00 | 0.00 | 72 | 1011.2 |
| 20260506100019 | 56 | 68 | 1.7 | 7.0 | 0.00 | 0.00 | 0.00 | 69 | 1011.2 |
| 20260506094516 | 54 | 17 | 0.9 | 7.8 | 0.00 | 0.00 | 0.00 | 62 | 1011.3 |
| 20260506093014 | 54 | 40 | 1.7 | 5.2 | 0.00 | 0.00 | 0.00 | 73 | 1011.4 |
| 20260506091517 | 54 | 46 | 0.9 | 7.0 | 0.00 | 0.00 | 0.00 | 72 | 1011.4 |
| 20260506090019 | 52 | 28 | 1.7 | 7.8 | 0.00 | 0.00 | 0.00 | 72 | 1011.4 |
| 20260506084529 | 53 | 32 | 4.3 | 7.8 | 0.00 | 0.00 | 0.00 | 74 | 1011.3 |
| 20260506083009 | 53 | 40 | 2.6 | 9.6 | 0.00 | 0.00 | 0.00 | 75 | 1011.3 |
| 20260506081509 | 53 | 55 | 0.0 | 7.8 | 0.00 | 0.00 | 0.00 | 74 | 1011.4 |
| 20260506073116 | 51 | 26 | 1.7 | 7.0 | 0.00 | 0.00 | 0.00 | 77 | 1011.4 |
| 20260506071601 | 50 | 19 | 2.6 | 7.0 | 0.00 | 0.00 | 0.00 | 81 | 1011.4 |
| 20260506061546 | 47 | 20 | 3.5 | 5.2 | 0.00 | 0.00 | 0.00 | 83 | 1011.3 |
| 20260506044533 | 42 | 360 | 2.6 | 5.2 | 0.00 | 0.00 | 0.00 | 87 | 1011.2 |
| 20260506043022 | 41 | 5 | 2.6 | 4.3 | 0.00 | 0.00 | 0.00 | 88 | 1011.2 |
| 20260506041516 | 40 | 5 | 2.6 | 4.3 | 0.00 | 0.00 | 0.00 | 88 | 1011.3 |
| 20260506040011 | 40 | 5 | 1.7 | 4.3 | 0.00 | 0.00 | 0.00 | 88 | 1011.3 |
| 20260506034509 | 40 | 348 | 3.5 | 4.3 | 0.00 | 0.00 | 0.00 | 89 | 1011.5 |
| 20260506033007 | 40 | 340 | 2.6 | 5.2 | 0.00 | 0.00 | 0.00 | 89 | 1011.6 |
| 20260506031507 | 39 | 333 | 3.5 | 7.0 | 0.00 | 0.00 | 0.00 | 89 | 1011.7 |
| 20260506030006 | 39 | 320 | 3.5 | 5.2 | 0.00 | 0.00 | 0.00 | 89 | 1011.7 |
| 20260506024503 | 38 | 312 | 2.6 | 3.5 | 0.00 | 0.00 | 0.00 | 88 | 1011.8 |
| 20260506023105 | 39 | 315 | 0.9 | 2.6 | 0.00 | 0.00 | 0.00 | 88 | 1011.9 |
| 20260506021601 | 39 | 338 | 0.0 | 2.6 | 0.00 | 0.00 | 0.00 | 88 | 1011.8 |
| 20260506020058 | 39 | 340 | 1.7 | 4.3 | 0.00 | 0.00 | 0.00 | 88 | 1011.8 |
| 20260506014558 | 39 | 350 | 3.5 | 4.3 | 0.00 | 0.00 | 0.00 | 88 | 1011.7 |
| 20260506013103 | 39 | 338 | 2.6 | 4.3 | 0.00 | 0.00 | 0.00 | 88 | 1011.6 |
| 20260506011621 | 40 | 340 | 4.3 | 5.2 | 0.00 | 0.00 | 0.00 | 88 | 1011.4 |
| 20260506004554 | 40 | 9 | 3.5 | 5.2 | 0.00 | 0.00 | 0.00 | 87 | 1011.3 |
| 20260506003051 | 40 | 15 | 3.5 | 7.0 | 0.00 | 0.00 | 0.00 | 87 | 1011.4 |
| 20260506001549 | 40 | 343 | 6.1 | 7.8 | 0.00 | 0.00 | 0.00 | 87 | 1011.5 |
| 20260506000055 | 40 | 348 | 4.3 | 7.0 | 0.00 | 0.00 | 0.00 | 87 | 1011.5 |
| 20260505234546 | 40 | 355 | 4.3 | 7.0 | 0.00 | 0.00 | 0.00 | 86 | 1011.6 |
| 20260505233043 | 40 | 355 | 4.3 | 7.0 | 0.00 | 0.00 | 0.00 | 85 | 1011.6 |
| 20260505231543 | 40 | 355 | 4.3 | 7.0 | 0.00 | 0.00 | 0.00 | 85 | 1011.7 |
| 20260505230040 | 41 | 5 | 3.5 | 7.0 | 0.00 | 0.00 | 0.00 | 84 | 1011.8 |
| 20260505224538 | 41 | 5 | 4.3 | 7.8 | 0.00 | 0.00 | 0.00 | 84 | 1011.8 |
| 20260505223035 | 41 | 13 | 4.3 | 8.7 | 0.00 | 0.00 | 0.00 | 83 | 1011.9 |
| 20260505221534 | 41 | 5 | 5.2 | 7.8 | 0.00 | 0.00 | 0.00 | 82 | 1011.9 |
| 20260505220048 | 41 | 19 | 6.1 | 7.8 | 0.00 | 0.00 | 0.00 | 81 | 1011.9 |
| 20260505214533 | 42 | 15 | 6.1 | 8.7 | 0.00 | 0.00 | 0.00 | 81 | 1011.9 |
| 20260505213032 | 43 | 20 | 4.3 | 7.0 | 0.00 | 0.00 | 0.00 | 81 | 1012.0 |
| 20260505211537 | 44 | 20 | 2.6 | 5.2 | 0.00 | 0.00 | 0.00 | 80 | 1011.9 |
| 20260505210033 | 45 | 129 | 0.0 | 2.6 | 0.00 | 0.00 | 0.00 | 76 | 1012.0 |
| 20260505204528 | 46 | 112 | 0.0 | 0.0 | 0.00 | 0.00 | 0.00 | 74 | 1011.8 |
| 20260505203027 | 46 | 112 | 0.0 | 0.0 | 0.00 | 0.00 | 0.00 | 73 | 1011.8 |
| 20260505201527 | 47 | 112 | 0.0 | 0.0 | 0.00 | 0.00 | 0.00 | 73 | 1011.9 |
| 20260505200027 | 47 | 112 | 0.0 | 0.0 | 0.00 | 0.00 | 0.00 | 72 | 1011.8 |
| 20260505194526 | 48 | 112 | 0.0 | 0.0 | 0.00 | 0.00 | 0.00 | 72 | 1011.8 |
| 20260505193034 | 48 | 112 | 0.0 | 0.9 | 0.00 | 0.00 | 0.00 | 74 | 1011.8 |
| 20260505191525 | 48 | 112 | 0.0 | 0.0 | 0.00 | 0.00 | 0.00 | 74 | 1011.7 |
| 20260505190028 | 48 | 112 | 0.0 | 0.0 | 0.00 | 0.00 | 0.00 | 74 | 1011.6 |
| 20260505184526 | 49 | 112 | 0.0 | 0.0 | 0.00 | 0.00 | 0.00 | 74 | 1011.5 |
| 20260505183034 | 50 | 112 | 0.0 | 2.6 | 0.00 | 0.00 | 0.00 | 74 | 1011.3 |
| 20260505181522 | 50 | 103 | 0.0 | 2.6 | 0.00 | 0.00 | 0.00 | 74 | 1011.4 |
| 20260505180021 | 50 | 98 | 0.0 | 0.0 | 0.00 | 0.00 | 0.00 | 73 | 1011.4 |
| 20260505174518 | 50 | 98 | 0.0 | 0.9 | 0.00 | 0.00 | 0.00 | 71 | 1011.5 |
| 20260505173015 | 51 | 96 | 0.0 | 2.6 | 0.00 | 0.00 | 0.00 | 70 | 1011.4 |
| 20260505171513 | 51 | 116 | 0.0 | 2.6 | 0.00 | 0.00 | 0.00 | 69 | 1011.5 |
| 20260505170012 | 51 | 117 | 0.9 | 3.5 | 0.00 | 0.00 | 0.00 | 68 | 1011.3 |
| 20260505164512 | 52 | 122 | 0.9 | 4.3 | 0.00 | 0.00 | 0.00 | 67 | 1011.2 |
| 20260505163011 | 53 | 117 | 1.7 | 5.2 | 0.00 | 0.00 | 0.00 | 67 | 1011.2 |
| 20260505161511 | 53 | 127 | 1.7 | 6.1 | 0.00 | 0.00 | 0.00 | 68 | 1011.2 |
| 20260505153009 | 54 | 100 | 0.9 | 6.1 | 0.00 | 0.00 | 0.00 | 67 | 1011.1 |
| 20260505151534 | 53 | 103 | 0.9 | 6.1 | 0.00 | 0.00 | 0.00 | 68 | 1010.9 |